Time,TemperatureF,DewpointF,PressureIn,WindDirection,WindDirectionDegrees,WindSpeedMPH,WindSpeedGustMPH,Humidity,HourlyPrecipIn,Conditions,Clouds,dailyrainin,SoftwareType,DateUTC
2013-07-27 00:03:00,70.8,64.4,30.22,SE,135,0.0,0.0,80,0.00,,,0.00,WUHU216HW,2013-07-27 04:03:00,
2013-07-27 00:08:00,70.8,64.4,30.22,SE,135,0.0,0.0,80,0.00,,,0.00,WUHU216HW,2013-07-27 04:08:00,
2013-07-27 00:13:00,70.7,64.5,30.22,SE,135,0.0,0.0,81,0.00,,,0.00,WUHU216HW,2013-07-27 04:13:00,
2013-07-27 00:18:00,70.8,64.7,30.22,SE,135,0.0,0.0,81,0.00,,,0.00,WUHU216HW,2013-07-27 04:18:00,
2013-07-27 00:23:00,70.7,64.5,30.22,SSE,158,0.0,0.0,81,0.00,,,0.00,WUHU216HW,2013-07-27 04:23:00,
2013-07-27 00:28:00,70.7,64.2,30.22,SSE,158,0.0,0.0,80,0.00,,,0.00,WUHU216HW,2013-07-27 04:28:00,
2013-07-27 00:33:00,70.7,64.2,30.21,SSE,158,0.0,0.0,80,0.00,,,0.00,WUHU216HW,2013-07-27 04:33:00,
2013-07-27 00:38:00,70.7,64.2,30.21,SSE,158,0.0,0.0,80,0.00,,,0.00,WUHU216HW,2013-07-27 04:38:00,
2013-07-27 00:43:00,70.7,64.2,30.22,SSE,158,0.0,0.0,80,0.00,,,0.00,WUHU216HW,2013-07-27 04:43:00,
2013-07-27 00:48:00,70.7,64.2,30.22,SSE,158,0.0,0.0,80,0.00,,,0.00,WUHU216HW,2013-07-27 04:48:00,
2013-07-27 00:53:00,70.5,64.0,30.22,SSE,158,0.0,0.0,80,0.00,,,0.00,WUHU216HW,2013-07-27 04:53:00,
2013-07-27 00:58:00,70.5,64.0,30.22,SSE,158,0.0,0.0,80,0.00,,,0.00,WUHU216HW,2013-07-27 04:58:00,
2013-07-27 01:03:00,70.5,64.0,30.22,SE,135,0.0,0.0,80,0.00,,,0.00,WUHU216HW,2013-07-27 05:03:00,
2013-07-27 01:08:00,70.3,64.2,30.22,South,180,0.0,0.0,81,0.00,,,0.00,WUHU216HW,2013-07-27 05:08:00,
2013-07-27 01:13:00,70.3,63.8,30.22,SE,135,0.0,0.0,80,0.00,,,0.00,WUHU216HW,2013-07-27 05:13:00,
2013-07-27 01:18:00,70.3,63.8,30.21,South,180,0.0,0.0,80,0.00,,,0.00,WUHU216HW,2013-07-27 05:18:00,
2013-07-27 01:23:00,70.1,63.6,30.21,SE,135,0.0,0.0,80,0.00,,,0.00,WUHU216HW,2013-07-27 05:23:00,
2013-07-27 01:28:00,70.1,63.6,30.20,SE,135,0.0,0.0,80,0.00,,,0.00,WUHU216HW,2013-07-27 05:28:00,
2013-07-27 01:33:00,69.9,63.5,30.20,SE,135,0.0,0.0,80,0.00,,,0.00,WUHU216HW,2013-07-27 05:33:00,
2013-07-27 01:38:00,69.9,63.5,30.20,SSE,158,0.0,0.0,80,0.00,,,0.00,WUHU216HW,2013-07-27 05:38:00,
2013-07-27 01:43:00,69.6,63.1,30.20,SSE,158,0.0,0.0,80,0.00,,,0.00,WUHU216HW,2013-07-27 05:43:00,
2013-07-27 01:48:00,69.6,63.1,30.20,SSE,158,0.0,0.0,80,0.00,,,0.00,WUHU216HW,2013-07-27 05:48:00,
2013-07-27 01:53:00,69.6,63.1,30.20,SE,135,0.0,0.0,80,0.00,,,0.00,WUHU216HW,2013-07-27 05:53:00,
2013-07-27 01:58:00,69.4,62.9,30.20,SSE,158,0.0,0.0,80,0.00,,,0.00,WUHU216HW,2013-07-27 05:58:00,
2013-07-27 02:03:00,69.4,62.9,30.20,SSE,158,0.0,0.0,80,0.00,,,0.00,WUHU216HW,2013-07-27 06:03:00,
2013-07-27 02:08:00,69.4,62.9,30.20,ESE,113,0.0,0.0,80,0.00,,,0.00,WUHU216HW,2013-07-27 06:08:00,
2013-07-27 02:13:00,69.2,62.8,30.19,SSE,158,0.0,0.0,80,0.00,,,0.00,WUHU216HW,2013-07-27 06:13:00,
2013-07-27 02:18:00,69.2,62.8,30.19,SSE,158,0.0,0.0,80,0.00,,,0.00,WUHU216HW,2013-07-27 06:18:00,
2013-07-27 02:23:00,69.2,62.8,30.19,SSE,158,0.0,0.0,80,0.00,,,0.00,WUHU216HW,2013-07-27 06:23:00,
2013-07-27 02:28:00,69.2,62.8,30.19,SSE,158,0.0,0.0,80,0.00,,,0.00,WUHU216HW,2013-07-27 06:28:00,
2013-07-27 02:33:00,69.2,62.8,30.19,SSE,158,0.0,0.0,80,0.00,,,0.00,WUHU216HW,2013-07-27 06:33:00,
2013-07-27 02:43:00,69.0,62.6,30.18,SSE,158,0.0,0.0,80,0.00,,,0.00,WUHU216HW,2013-07-27 06:43:00,
2013-07-27 02:48:00,68.9,62.5,30.19,SSE,158,0.0,0.0,80,0.00,,,0.00,WUHU216HW,2013-07-27 06:48:00,
2013-07-27 02:53:00,68.9,62.5,30.19,SSE,158,0.0,0.0,80,0.00,,,0.00,WUHU216HW,2013-07-27 06:53:00,
2013-07-27 02:58:00,68.7,62.6,30.19,SSE,158,0.0,0.0,81,0.00,,,0.00,WUHU216HW,2013-07-27 06:58:00,
2013-07-27 03:03:00,68.7,62.6,30.19,SSE,158,0.0,0.0,81,0.04,,,0.02,WUHU216HW,2013-07-27 07:03:00,
2013-07-27 03:08:00,68.5,62.5,30.18,SE,135,0.0,0.0,81,0.04,,,0.04,WUHU216HW,2013-07-27 07:08:00,
2013-07-27 03:13:00,68.1,62.1,30.17,SSE,158,0.0,0.0,81,0.06,,,0.06,WUHU216HW,2013-07-27 07:13:00,
2013-07-27 03:18:00,68.1,62.5,30.17,SSE,158,0.0,0.0,82,0.06,,,0.06,WUHU216HW,2013-07-27 07:18:00,
2013-07-27 03:23:00,67.8,62.1,30.17,SSE,158,0.0,0.0,82,0.06,,,0.06,WUHU216HW,2013-07-27 07:23:00,
2013-07-27 03:28:00,67.8,62.4,30.17,SSE,158,0.0,0.0,83,0.06,,,0.06,WUHU216HW,2013-07-27 07:28:00,
2013-07-27 03:33:00,67.6,62.3,30.16,SSE,158,0.0,0.0,83,0.06,,,0.06,WUHU216HW,2013-07-27 07:33:00,
2013-07-27 03:38:00,67.6,62.3,30.16,SSE,158,0.0,0.0,83,0.06,,,0.06,WUHU216HW,2013-07-27 07:38:00,
2013-07-27 03:43:00,67.2,62.2,30.17,SSE,158,0.0,0.0,84,0.06,,,0.06,WUHU216HW,2013-07-27 07:43:00,
2013-07-27 03:48:00,67.2,62.2,30.17,SSE,158,0.0,0.0,84,0.06,,,0.06,WUHU216HW,2013-07-27 07:48:00,
2013-07-27 03:53:00,67.2,62.2,30.17,SSE,158,0.0,0.0,84,0.06,,,0.06,WUHU216HW,2013-07-27 07:53:00,
2013-07-27 03:58:00,67.2,62.2,30.17,SSE,158,0.0,0.0,84,0.06,,,0.06,WUHU216HW,2013-07-27 07:58:00,
2013-07-27 04:03:00,67.1,62.0,30.17,SSE,158,0.0,0.0,84,0.02,,,0.06,WUHU216HW,2013-07-27 08:03:00,
2013-07-27 04:08:00,67.1,62.0,30.16,SSE,158,0.0,0.0,84,0.00,,,0.06,WUHU216HW,2013-07-27 08:08:00,
2013-07-27 04:13:00,67.1,62.0,30.16,SSE,158,0.0,0.0,84,0.00,,,0.06,WUHU216HW,2013-07-27 08:13:00,
2013-07-27 04:18:00,67.1,62.0,30.16,SSE,158,0.0,0.0,84,0.00,,,0.06,WUHU216HW,2013-07-27 08:18:00,
2013-07-27 04:23:00,67.1,62.0,30.16,SSE,158,0.0,0.0,84,0.00,,,0.06,WUHU216HW,2013-07-27 08:23:00,
2013-07-27 04:28:00,66.9,61.9,30.16,SSE,158,0.0,0.0,84,0.00,,,0.06,WUHU216HW,2013-07-27 08:28:00,
2013-07-27 04:33:00,66.9,61.9,30.16,SSE,158,0.0,0.0,84,0.00,,,0.06,WUHU216HW,2013-07-27 08:33:00,
2013-07-27 04:38:00,66.9,62.2,30.16,SSE,158,0.0,0.0,85,0.00,,,0.06,WUHU216HW,2013-07-27 08:38:00,
2013-07-27 04:43:00,66.7,62.0,30.16,SSE,158,0.0,0.0,85,0.00,,,0.06,WUHU216HW,2013-07-27 08:43:00,
2013-07-27 04:48:00,66.7,62.0,30.16,SSE,158,0.0,0.0,85,0.00,,,0.06,WUHU216HW,2013-07-27 08:48:00,
2013-07-27 04:53:00,66.7,62.0,30.16,SSE,158,0.0,0.0,85,0.00,,,0.06,WUHU216HW,2013-07-27 08:53:00,
2013-07-27 04:59:00,66.7,62.0,30.16,SSE,158,0.0,0.0,85,0.00,,,0.06,WUHU216HW,2013-07-27 08:59:00,
2013-07-27 05:04:00,66.7,62.0,30.16,SSE,158,0.0,0.0,85,0.00,,,0.06,WUHU216HW,2013-07-27 09:04:00,
2013-07-27 05:09:00,66.7,62.3,30.15,SSE,158,0.0,0.0,86,0.00,,,0.06,WUHU216HW,2013-07-27 09:09:00,
2013-07-27 05:14:00,66.7,62.3,30.16,SSE,158,0.0,0.0,86,0.00,,,0.06,WUHU216HW,2013-07-27 09:14:00,
2013-07-27 05:19:00,66.7,62.3,30.16,SSE,158,0.0,0.0,86,0.00,,,0.06,WUHU216HW,2013-07-27 09:19:00,
2013-07-27 05:24:00,66.7,62.3,30.16,SSE,158,0.0,0.0,86,0.00,,,0.06,WUHU216HW,2013-07-27 09:24:00,
2013-07-27 05:29:00,66.7,62.3,30.16,SSE,158,0.0,0.0,86,0.00,,,0.06,WUHU216HW,2013-07-27 09:29:00,
2013-07-27 05:34:00,66.7,62.3,30.16,SSE,158,0.0,0.0,86,0.00,,,0.06,WUHU216HW,2013-07-27 09:34:00,
2013-07-27 05:39:00,66.7,62.3,30.16,SSE,158,0.0,0.0,86,0.00,,,0.06,WUHU216HW,2013-07-27 09:39:00,
2013-07-27 05:44:00,66.5,62.5,30.16,SSE,158,0.0,0.0,87,0.00,,,0.06,WUHU216HW,2013-07-27 09:44:00,
2013-07-27 05:49:00,66.5,62.5,30.16,SSE,158,0.0,0.0,87,0.00,,,0.06,WUHU216HW,2013-07-27 09:49:00,
2013-07-27 05:54:00,66.5,62.5,30.16,SSE,158,0.0,0.0,87,0.00,,,0.06,WUHU216HW,2013-07-27 09:54:00,
2013-07-27 05:59:00,66.7,62.7,30.16,SSE,158,0.0,0.0,87,0.00,,,0.06,WUHU216HW,2013-07-27 09:59:00,
2013-07-27 06:04:00,66.7,62.7,30.16,SSE,158,0.0,0.0,87,0.00,,,0.06,WUHU216HW,2013-07-27 10:04:00,
2013-07-27 06:09:00,66.7,62.7,30.16,SSE,158,0.0,0.0,87,0.00,,,0.06,WUHU216HW,2013-07-27 10:09:00,
2013-07-27 06:14:00,66.7,62.7,30.16,SSE,158,0.0,0.0,87,0.00,,,0.06,WUHU216HW,2013-07-27 10:14:00,
2013-07-27 06:19:00,66.7,62.7,30.16,SSE,158,0.0,0.0,87,0.00,,,0.06,WUHU216HW,2013-07-27 10:19:00,
2013-07-27 06:24:00,66.7,62.7,30.16,SSE,158,0.0,0.0,87,0.00,,,0.06,WUHU216HW,2013-07-27 10:24:00,
2013-07-27 06:29:00,66.7,62.7,30.16,SSE,158,0.0,0.0,87,0.00,,,0.06,WUHU216HW,2013-07-27 10:29:00,
2013-07-27 06:34:00,66.7,62.7,30.16,SSE,158,0.0,0.0,87,0.00,,,0.06,WUHU216HW,2013-07-27 10:34:00,
2013-07-27 06:39:00,66.7,62.7,30.16,SSE,158,0.0,0.0,87,0.00,,,0.06,WUHU216HW,2013-07-27 10:39:00,
2013-07-27 06:44:00,66.7,62.7,30.16,SSE,158,0.0,0.0,87,0.00,,,0.06,WUHU216HW,2013-07-27 10:44:00,
2013-07-27 06:49:00,66.7,62.7,30.16,SSE,158,0.0,0.0,87,0.00,,,0.06,WUHU216HW,2013-07-27 10:49:00,
2013-07-27 06:54:00,66.7,62.7,30.16,SSE,158,0.0,0.0,87,0.00,,,0.06,WUHU216HW,2013-07-27 10:54:00,
2013-07-27 06:59:00,66.7,62.7,30.16,SSE,158,0.0,0.0,87,0.00,,,0.06,WUHU216HW,2013-07-27 10:59:00,
2013-07-27 07:04:00,66.7,62.7,30.16,SSE,158,0.0,0.0,87,0.00,,,0.06,WUHU216HW,2013-07-27 11:04:00,
2013-07-27 07:09:00,66.7,63.0,30.16,SSE,158,0.0,0.0,88,0.00,,,0.06,WUHU216HW,2013-07-27 11:09:00,
2013-07-27 07:14:00,66.7,63.0,30.16,SSE,158,0.0,0.0,88,0.00,,,0.06,WUHU216HW,2013-07-27 11:14:00,
2013-07-27 07:19:00,66.7,63.0,30.17,SSE,158,0.0,0.0,88,0.00,,,0.06,WUHU216HW,2013-07-27 11:19:00,
2013-07-27 07:24:00,66.5,62.8,30.17,SSE,158,0.0,0.0,88,0.00,,,0.06,WUHU216HW,2013-07-27 11:24:00,
2013-07-27 07:29:00,66.5,62.8,30.18,SSE,158,0.0,0.0,88,0.00,,,0.06,WUHU216HW,2013-07-27 11:29:00,
2013-07-27 07:34:00,66.5,62.8,30.17,SSE,158,0.0,0.0,88,0.02,,,0.08,WUHU216HW,2013-07-27 11:34:00,
2013-07-27 07:39:00,66.5,62.8,30.17,SSE,158,0.0,0.0,88,0.24,,,0.26,WUHU216HW,2013-07-27 11:39:00,
2013-07-27 07:44:00,66.3,62.6,30.17,SSE,158,0.0,0.0,88,0.26,,,0.32,WUHU216HW,2013-07-27 11:44:00,
2013-07-27 07:49:00,66.3,62.6,30.17,SSE,158,0.0,0.0,88,0.30,,,0.36,WUHU216HW,2013-07-27 11:49:00,
2013-07-27 07:54:00,66.2,62.4,30.17,SSE,158,0.0,0.0,88,0.35,,,0.36,WUHU216HW,2013-07-27 11:54:00,
2013-07-27 07:59:00,66.2,62.8,30.17,SSE,158,0.0,0.0,89,0.35,,,0.41,WUHU216HW,2013-07-27 11:59:00,
2013-07-27 08:04:00,66.2,62.8,30.18,SSE,158,0.0,0.0,89,0.37,,,0.43,WUHU216HW,2013-07-27 12:04:00,
2013-07-27 08:09:00,66.3,62.9,30.18,SSE,158,0.0,0.0,89,0.37,,,0.43,WUHU216HW,2013-07-27 12:09:00,
2013-07-27 08:14:00,66.3,62.9,30.18,SSE,158,0.0,0.0,89,0.37,,,0.43,WUHU216HW,2013-07-27 12:14:00,
2013-07-27 08:19:00,66.3,63.1,30.17,SSE,158,0.0,0.0,89,0.37,,,0.43,WUHU216HW,2013-07-27 12:19:00,
2013-07-27 08:24:00,66.5,63.1,30.17,SSE,158,0.0,0.0,89,0.37,,,0.43,WUHU216HW,2013-07-27 12:24:00,
2013-07-27 08:29:00,66.7,63.3,30.17,SSE,158,0.0,0.0,89,0.37,,,0.43,WUHU216HW,2013-07-27 12:29:00,
2013-07-27 08:35:00,66.7,63.3,30.17,ESE,113,0.0,0.0,89,0.28,,,0.43,WUHU216HW,2013-07-27 12:35:00,
2013-07-27 08:40:00,66.9,63.5,30.17,SE,135,0.0,0.0,89,0.12,,,0.43,WUHU216HW,2013-07-27 12:40:00,
2013-07-27 08:45:00,66.9,63.8,30.17,SSW,203,0.0,0.0,90,0.10,,,0.43,WUHU216HW,2013-07-27 12:45:00,
2013-07-27 08:50:00,67.2,64.2,30.17,SSW,203,0.0,0.0,90,0.06,,,0.43,WUHU216HW,2013-07-27 12:50:00,
2013-07-27 08:55:00,67.2,64.2,30.17,SSW,203,0.0,0.0,90,0.02,,,0.43,WUHU216HW,2013-07-27 12:55:00,
2013-07-27 09:00:00,67.6,64.5,30.17,SSW,203,0.0,0.0,90,0.02,,,0.43,WUHU216HW,2013-07-27 13:00:00,
2013-07-27 09:05:00,67.6,64.5,30.17,SSW,203,0.0,0.0,90,0.00,,,0.43,WUHU216HW,2013-07-27 13:05:00,
2013-07-27 09:10:00,67.8,64.7,30.17,SSW,203,0.0,0.0,90,0.00,,,0.43,WUHU216HW,2013-07-27 13:10:00,
2013-07-27 09:15:00,67.8,64.7,30.17,SSW,203,0.0,0.0,90,0.00,,,0.43,WUHU216HW,2013-07-27 13:15:00,
2013-07-27 09:20:00,68.1,65.1,30.18,SSW,203,0.0,0.0,90,0.00,,,0.43,WUHU216HW,2013-07-27 13:20:00,
2013-07-27 09:25:00,68.5,65.4,30.18,SSW,203,0.0,0.0,90,0.00,,,0.43,WUHU216HW,2013-07-27 13:25:00,
2013-07-27 09:30:00,68.7,65.6,30.18,SSW,203,0.0,0.0,90,0.00,,,0.43,WUHU216HW,2013-07-27 13:30:00,
2013-07-27 09:35:00,68.7,65.8,30.18,SSW,203,0.0,0.0,90,0.00,,,0.43,WUHU216HW,2013-07-27 13:35:00,
2013-07-27 09:40:00,69.0,66.0,30.19,SSW,203,0.0,0.0,90,0.00,,,0.43,WUHU216HW,2013-07-27 13:40:00,
2013-07-27 09:45:00,69.4,66.6,30.19,SSW,203,0.0,0.0,91,0.00,,,0.43,WUHU216HW,2013-07-27 13:45:00,
2013-07-27 09:50:00,69.6,66.8,30.18,SSW,203,0.0,0.0,91,0.00,,,0.43,WUHU216HW,2013-07-27 13:50:00,
2013-07-27 09:55:00,69.8,67.0,30.18,SSW,203,0.0,0.0,91,0.00,,,0.43,WUHU216HW,2013-07-27 13:55:00,
2013-07-27 10:00:00,70.1,67.4,30.17,SSW,203,0.0,0.0,91,0.00,,,0.43,WUHU216HW,2013-07-27 14:00:00,
2013-07-27 10:05:00,70.3,67.5,30.17,SSW,203,0.0,0.0,91,0.00,,,0.43,WUHU216HW,2013-07-27 14:05:00,
2013-07-27 10:10:00,70.5,67.7,30.17,SSW,203,0.0,0.0,91,0.00,,,0.43,WUHU216HW,2013-07-27 14:10:00,
2013-07-27 10:15:00,70.8,68.1,30.17,SSW,203,0.0,0.0,91,0.00,,,0.43,WUHU216HW,2013-07-27 14:15:00,
2013-07-27 10:20:00,71.0,68.3,30.17,SSW,203,0.0,0.0,91,0.00,,,0.43,WUHU216HW,2013-07-27 14:20:00,
2013-07-27 10:25:00,71.2,68.1,30.17,SSW,203,0.0,0.0,90,0.00,,,0.43,WUHU216HW,2013-07-27 14:25:00,
2013-07-27 10:30:00,71.4,68.3,30.17,SSW,203,0.0,0.0,90,0.00,,,0.43,WUHU216HW,2013-07-27 14:30:00,
2013-07-27 10:35:00,71.4,68.3,30.17,SSW,203,0.0,0.0,90,0.00,,,0.43,WUHU216HW,2013-07-27 14:35:00,
2013-07-27 10:40:00,71.7,69.0,30.17,SSW,203,0.0,0.0,91,0.00,,,0.43,WUHU216HW,2013-07-27 14:40:00,
2013-07-27 10:45:00,71.9,69.2,30.17,SSW,203,0.0,0.0,91,0.00,,,0.43,WUHU216HW,2013-07-27 14:45:00,
2013-07-27 10:50:00,72.1,69.3,30.17,SSE,158,0.0,0.0,91,0.00,,,0.43,WUHU216HW,2013-07-27 14:50:00,
2013-07-27 10:55:00,72.1,69.0,30.17,SSE,158,0.0,0.0,90,0.00,,,0.43,WUHU216HW,2013-07-27 14:55:00,
2013-07-27 11:00:00,72.1,69.0,30.17,SSE,158,0.0,0.0,90,0.00,,,0.43,WUHU216HW,2013-07-27 15:00:00,
2013-07-27 11:05:00,72.3,69.2,30.17,SSE,158,0.0,0.0,90,0.00,,,0.43,WUHU216HW,2013-07-27 15:05:00,
2013-07-27 11:10:00,72.6,69.6,30.17,SSE,158,0.0,0.0,90,0.00,,,0.43,WUHU216HW,2013-07-27 15:10:00,
2013-07-27 11:15:00,72.8,69.8,30.17,SW,225,0.0,0.0,90,0.00,,,0.43,WUHU216HW,2013-07-27 15:15:00,
2013-07-27 11:20:00,73.2,70.1,30.17,SSE,158,0.0,0.0,90,0.00,,,0.43,WUHU216HW,2013-07-27 15:20:00,
2013-07-27 11:25:00,73.5,70.5,30.17,SSE,158,0.0,0.0,90,0.00,,,0.43,WUHU216HW,2013-07-27 15:25:00,
2013-07-27 11:30:00,73.5,70.1,30.17,SSE,158,0.0,0.0,89,0.00,,,0.43,WUHU216HW,2013-07-27 15:30:00,
2013-07-27 11:35:00,73.9,70.5,30.17,SSE,158,0.0,0.0,89,0.00,,,0.43,WUHU216HW,2013-07-27 15:35:00,
2013-07-27 11:40:00,73.9,70.5,30.17,SSE,158,0.0,0.0,89,0.00,,,0.43,WUHU216HW,2013-07-27 15:40:00,
2013-07-27 11:45:00,73.9,70.1,30.16,SSE,158,0.0,0.0,88,0.00,,,0.43,WUHU216HW,2013-07-27 15:45:00,
2013-07-27 11:50:00,73.9,69.8,30.17,SSE,158,0.0,0.0,87,0.00,,,0.43,WUHU216HW,2013-07-27 15:50:00,
2013-07-27 11:55:00,74.1,70.0,30.17,SSE,158,0.0,0.0,87,0.00,,,0.43,WUHU216HW,2013-07-27 15:55:00,
2013-07-27 12:00:00,74.1,69.6,30.16,SSE,158,0.0,0.0,86,0.00,,,0.43,WUHU216HW,2013-07-27 16:00:00,
2013-07-27 12:05:00,74.1,70.0,30.16,SSE,158,0.0,0.0,87,0.00,,,0.43,WUHU216HW,2013-07-27 16:05:00,
2013-07-27 12:10:00,74.3,69.8,30.16,WSW,248,0.0,0.0,86,0.00,,,0.43,WUHU216HW,2013-07-27 16:10:00,
2013-07-27 12:15:00,74.8,70.0,30.16,SSE,158,0.0,0.0,85,0.00,,,0.43,WUHU216HW,2013-07-27 16:15:00,
2013-07-27 12:20:00,74.8,70.0,30.16,SSE,158,0.0,0.0,85,0.00,,,0.43,WUHU216HW,2013-07-27 16:20:00,
2013-07-27 12:25:00,74.8,70.0,30.16,SE,135,0.0,0.0,85,0.00,,,0.43,WUHU216HW,2013-07-27 16:25:00,
2013-07-27 12:30:00,75.0,70.2,30.16,SE,135,0.0,0.0,85,0.00,,,0.43,WUHU216HW,2013-07-27 16:30:00,
2013-07-27 12:35:00,75.3,70.5,30.16,North,0,0.0,0.0,85,0.00,,,0.43,WUHU216HW,2013-07-27 16:35:00,
2013-07-27 12:40:00,75.5,70.7,30.15,North,0,0.0,0.0,85,0.00,,,0.43,WUHU216HW,2013-07-27 16:40:00,
2013-07-27 12:45:00,75.7,70.7,30.16,NNW,338,0.0,0.0,84,0.00,,,0.43,WUHU216HW,2013-07-27 16:45:00,
2013-07-27 12:50:00,75.9,70.7,30.16,NNW,338,0.0,0.0,84,0.00,,,0.43,WUHU216HW,2013-07-27 16:50:00,
2013-07-27 12:55:00,76.1,70.9,30.16,NNW,338,0.0,0.0,84,0.00,,,0.43,WUHU216HW,2013-07-27 16:55:00,
2013-07-27 13:00:00,76.1,70.5,30.15,NNW,338,0.0,0.0,83,0.00,,,0.43,WUHU216HW,2013-07-27 17:00:00,
2013-07-27 13:05:00,75.9,70.0,30.15,NNW,338,0.0,0.0,82,0.00,,,0.43,WUHU216HW,2013-07-27 17:05:00,
2013-07-27 13:10:00,75.7,70.2,30.15,NNW,338,0.0,0.0,83,0.00,,,0.43,WUHU216HW,2013-07-27 17:10:00,
2013-07-27 13:15:00,75.9,70.4,30.15,NNW,338,0.0,0.0,83,0.00,,,0.43,WUHU216HW,2013-07-27 17:15:00,
2013-07-27 13:20:00,75.9,70.0,30.15,NNW,338,0.0,0.0,82,0.00,,,0.43,WUHU216HW,2013-07-27 17:20:00,
2013-07-27 13:25:00,76.1,70.2,30.15,NNW,338,0.0,0.0,82,0.00,,,0.43,WUHU216HW,2013-07-27 17:25:00,
2013-07-27 13:30:00,76.2,70.7,30.15,NNW,338,0.0,0.0,83,0.00,,,0.43,WUHU216HW,2013-07-27 17:30:00,
2013-07-27 13:35:00,76.2,70.3,30.14,NNW,338,0.0,0.0,82,0.00,,,0.43,WUHU216HW,2013-07-27 17:35:00,
2013-07-27 13:40:00,76.4,70.5,30.14,NNW,338,0.0,0.0,82,0.00,,,0.43,WUHU216HW,2013-07-27 17:40:00,
2013-07-27 13:45:00,76.4,69.8,30.13,NNW,338,0.0,0.0,80,0.00,,,0.43,WUHU216HW,2013-07-27 17:45:00,
2013-07-27 13:50:00,76.2,69.2,30.14,NNW,338,0.0,0.0,79,0.00,,,0.43,WUHU216HW,2013-07-27 17:50:00,
2013-07-27 13:55:00,76.2,69.6,30.13,NNW,338,0.0,0.0,80,0.00,,,0.43,WUHU216HW,2013-07-27 17:55:00,
2013-07-27 14:00:00,76.8,70.1,30.13,NNW,338,0.0,0.0,80,0.00,,,0.43,WUHU216HW,2013-07-27 18:00:00,
2013-07-27 14:05:00,76.8,70.1,30.13,NNW,338,0.0,0.0,80,0.00,,,0.43,WUHU216HW,2013-07-27 18:05:00,
2013-07-27 14:10:00,76.8,70.1,30.13,NNW,338,0.0,0.0,80,0.00,,,0.43,WUHU216HW,2013-07-27 18:10:00,
2013-07-27 14:15:00,77.0,69.9,30.13,NNW,338,0.0,0.0,79,0.00,,,0.43,WUHU216HW,2013-07-27 18:15:00,
2013-07-27 14:20:00,77.1,70.1,30.13,NNW,338,0.0,0.0,79,0.00,,,0.43,WUHU216HW,2013-07-27 18:20:00,
2013-07-27 14:25:00,77.3,70.7,30.13,NNW,338,0.0,0.0,80,0.00,,,0.43,WUHU216HW,2013-07-27 18:25:00,
2013-07-27 14:30:00,77.5,70.4,30.13,NNW,338,0.0,0.0,79,0.00,,,0.43,WUHU216HW,2013-07-27 18:30:00,
2013-07-27 14:40:00,77.5,68.9,30.13,WSW,248,0.0,0.0,75,0.00,,,0.43,WUHU216HW,2013-07-27 18:40:00,
2013-07-27 14:45:00,78.0,70.2,30.13,WSW,248,0.0,0.0,77,0.00,,,0.43,WUHU216HW,2013-07-27 18:45:00,
2013-07-27 14:50:00,78.6,69.5,30.13,WSW,248,0.0,0.0,74,0.00,,,0.43,WUHU216HW,2013-07-27 18:50:00,
2013-07-27 14:55:00,78.6,69.1,30.12,WSW,248,0.0,0.0,73,0.00,,,0.43,WUHU216HW,2013-07-27 18:55:00,
2013-07-27 15:00:00,78.9,68.7,30.12,WSW,248,0.0,0.0,71,0.00,,,0.43,WUHU216HW,2013-07-27 19:00:00,
2013-07-27 15:05:00,78.9,68.7,30.12,North,0,0.0,0.0,71,0.00,,,0.43,WUHU216HW,2013-07-27 19:05:00,
2013-07-27 15:10:00,79.1,69.3,30.12,North,0,0.0,0.0,72,0.00,,,0.43,WUHU216HW,2013-07-27 19:10:00,
2013-07-27 15:15:00,79.5,70.0,30.12,North,0,0.0,0.0,73,0.00,,,0.43,WUHU216HW,2013-07-27 19:15:00,
2013-07-27 15:20:00,79.8,70.0,30.12,North,0,0.0,0.0,72,0.00,,,0.43,WUHU216HW,2013-07-27 19:20:00,
2013-07-27 15:25:00,80.0,70.2,30.11,North,0,0.0,0.0,72,0.00,,,0.43,WUHU216HW,2013-07-27 19:25:00,
2013-07-27 15:30:00,80.4,70.1,30.11,North,0,0.0,0.0,71,0.00,,,0.43,WUHU216HW,2013-07-27 19:30:00,
2013-07-27 15:35:00,80.6,70.7,30.11,WSW,248,0.0,0.0,72,0.00,,,0.43,WUHU216HW,2013-07-27 19:35:00,
2013-07-27 15:45:00,81.1,70.8,30.11,NNE,23,0.0,0.0,71,0.00,,,0.43,WUHU216HW,2013-07-27 19:45:00,
2013-07-27 15:50:00,81.3,70.1,30.10,NNE,23,0.0,0.0,69,0.00,,,0.43,WUHU216HW,2013-07-27 19:50:00,
2013-07-27 15:55:00,81.1,70.4,30.10,NNE,23,0.0,0.0,70,0.00,,,0.43,WUHU216HW,2013-07-27 19:55:00,
2013-07-27 16:00:00,81.1,70.4,30.10,North,0,0.0,0.0,70,0.00,,,0.43,WUHU216HW,2013-07-27 20:00:00,
2013-07-27 16:05:00,81.1,70.4,30.10,NNE,23,0.0,0.0,70,0.00,,,0.43,WUHU216HW,2013-07-27 20:05:00,
2013-07-27 16:10:00,80.9,69.8,30.10,NNE,23,0.0,0.0,69,0.00,,,0.43,WUHU216HW,2013-07-27 20:10:00,
2013-07-27 16:15:00,80.9,70.3,30.10,North,0,0.0,0.0,70,0.00,,,0.43,WUHU216HW,2013-07-27 20:15:00,
2013-07-27 16:20:00,80.9,69.8,30.10,North,0,0.0,0.0,69,0.00,,,0.43,WUHU216HW,2013-07-27 20:20:00,
2013-07-27 16:25:00,81.1,70.4,30.10,North,0,0.0,0.0,70,0.00,,,0.43,WUHU216HW,2013-07-27 20:25:00,
2013-07-27 16:30:00,81.5,70.7,30.10,NNE,23,0.0,0.0,70,0.00,,,0.43,WUHU216HW,2013-07-27 20:30:00,
2013-07-27 16:35:00,81.5,71.1,30.10,NNE,23,0.0,0.0,71,0.00,,,0.43,WUHU216HW,2013-07-27 20:35:00,
2013-07-27 16:40:00,81.5,70.7,30.10,NNE,23,0.0,0.0,70,0.00,,,0.43,WUHU216HW,2013-07-27 20:40:00,
2013-07-27 16:45:00,81.6,70.9,30.10,North,0,0.0,0.0,70,0.00,,,0.43,WUHU216HW,2013-07-27 20:45:00,
2013-07-27 16:51:00,82.0,71.6,30.09,WSW,248,0.0,0.0,71,0.00,,,0.43,WUHU216HW,2013-07-27 20:51:00,
2013-07-27 16:56:00,82.0,70.8,30.09,WSW,248,0.0,0.0,69,0.00,,,0.43,WUHU216HW,2013-07-27 20:56:00,
2013-07-27 17:01:00,82.4,71.1,30.10,NNE,23,0.0,0.0,69,0.00,,,0.43,WUHU216HW,2013-07-27 21:01:00,
2013-07-27 17:06:00,82.5,70.4,30.09,North,0,0.0,0.0,67,0.00,,,0.43,WUHU216HW,2013-07-27 21:06:00,
2013-07-27 17:11:00,82.5,70.8,30.09,North,0,0.0,0.0,68,0.00,,,0.43,WUHU216HW,2013-07-27 21:11:00,
2013-07-27 17:16:00,82.9,70.7,30.09,WSW,248,0.0,0.0,67,0.00,,,0.43,WUHU216HW,2013-07-27 21:16:00,
2013-07-27 17:21:00,83.3,71.1,30.09,NNE,23,0.0,0.0,67,0.00,,,0.43,WUHU216HW,2013-07-27 21:21:00,
2013-07-27 17:26:00,83.3,70.7,30.08,NNE,23,0.0,0.0,66,0.00,,,0.43,WUHU216HW,2013-07-27 21:26:00,
2013-07-27 17:31:00,83.1,70.5,30.08,NNE,23,0.0,0.0,66,0.00,,,0.43,WUHU216HW,2013-07-27 21:31:00,
2013-07-27 17:36:00,82.9,70.3,30.09,NNE,23,0.0,0.0,66,0.00,,,0.43,WUHU216HW,2013-07-27 21:36:00,
2013-07-27 17:41:00,82.5,69.9,30.09,NNE,23,0.0,0.0,66,0.00,,,0.43,WUHU216HW,2013-07-27 21:41:00,
2013-07-27 17:46:00,82.0,69.4,30.09,NNE,23,0.0,0.0,66,0.00,,,0.43,WUHU216HW,2013-07-27 21:46:00,
2013-07-27 17:51:00,81.3,68.8,30.09,SSE,158,0.0,0.0,66,0.00,,,0.43,WUHU216HW,2013-07-27 21:51:00,
2013-07-27 17:56:00,80.7,68.3,30.09,SSE,158,0.0,0.0,66,0.00,,,0.43,WUHU216HW,2013-07-27 21:56:00,
2013-07-27 18:01:00,79.7,67.3,30.09,SSE,158,0.0,0.0,66,0.00,,,0.43,WUHU216HW,2013-07-27 22:01:00,
2013-07-27 18:06:00,79.1,67.2,30.09,SSE,158,0.0,0.0,67,0.00,,,0.43,WUHU216HW,2013-07-27 22:06:00,
2013-07-27 18:11:00,78.6,66.7,30.09,SSE,158,0.0,0.0,67,0.00,,,0.43,WUHU216HW,2013-07-27 22:11:00,
2013-07-27 18:16:00,78.4,66.9,30.09,SSE,158,0.0,0.0,68,0.00,,,0.43,WUHU216HW,2013-07-27 22:16:00,
2013-07-27 18:21:00,77.9,66.9,30.09,SSE,158,0.0,0.0,69,0.00,,,0.43,WUHU216HW,2013-07-27 22:21:00,
2013-07-27 18:26:00,77.7,67.3,30.09,SSE,158,0.0,0.0,70,0.00,,,0.43,WUHU216HW,2013-07-27 22:26:00,
2013-07-27 18:31:00,77.9,67.3,30.09,SSE,158,0.0,0.0,70,0.00,,,0.43,WUHU216HW,2013-07-27 22:31:00,
2013-07-27 18:36:00,77.7,67.5,30.10,SSE,158,0.0,0.0,71,0.00,,,0.43,WUHU216HW,2013-07-27 22:36:00,
2013-07-27 18:41:00,77.7,67.5,30.10,SSE,158,0.0,0.0,71,0.00,,,0.43,WUHU216HW,2013-07-27 22:41:00,
2013-07-27 18:46:00,77.3,67.6,30.10,SSE,158,0.0,0.0,72,0.00,,,0.43,WUHU216HW,2013-07-27 22:46:00,
2013-07-27 18:51:00,77.0,66.9,30.10,SSE,158,0.0,0.0,71,0.00,,,0.43,WUHU216HW,2013-07-27 22:51:00,
2013-07-27 18:56:00,76.2,66.2,30.11,SSE,158,0.0,0.0,71,0.00,,,0.43,WUHU216HW,2013-07-27 22:56:00,
2013-07-27 19:01:00,75.7,66.0,30.11,SSE,158,0.0,0.0,72,0.00,,,0.43,WUHU216HW,2013-07-27 23:01:00,
2013-07-27 19:06:00,75.3,65.7,30.11,SSE,158,0.0,0.0,72,0.00,,,0.43,WUHU216HW,2013-07-27 23:06:00,
2013-07-27 19:11:00,75.0,65.3,30.11,SSE,158,0.0,0.0,72,0.00,,,0.43,WUHU216HW,2013-07-27 23:11:00,
2013-07-27 19:16:00,74.8,65.6,30.11,SSE,158,0.0,0.0,73,0.00,,,0.43,WUHU216HW,2013-07-27 23:16:00,
2013-07-27 19:22:00,74.4,65.2,30.11,SSE,158,0.0,0.0,73,0.00,,,0.43,WUHU216HW,2013-07-27 23:22:00,
2013-07-27 19:27:00,74.1,65.3,30.11,SSE,158,0.0,0.0,74,0.00,,,0.43,WUHU216HW,2013-07-27 23:27:00,
2013-07-27 19:32:00,73.9,65.1,30.11,SSE,158,0.0,0.0,74,0.00,,,0.43,WUHU216HW,2013-07-27 23:32:00,
2013-07-27 19:37:00,73.9,65.5,30.11,SSE,158,0.0,0.0,75,0.00,,,0.43,WUHU216HW,2013-07-27 23:37:00,
2013-07-27 19:42:00,73.9,65.1,30.11,SSE,158,0.0,0.0,74,0.00,,,0.43,WUHU216HW,2013-07-27 23:42:00,
2013-07-27 19:47:00,73.9,65.1,30.11,SSE,158,0.0,0.0,74,0.00,,,0.43,WUHU216HW,2013-07-27 23:47:00,
2013-07-27 19:52:00,73.7,64.9,30.11,SSE,158,0.0,0.0,74,0.00,,,0.43,WUHU216HW,2013-07-27 23:52:00,
2013-07-27 19:57:00,73.5,64.8,30.11,SSE,158,0.0,0.0,74,0.00,,,0.43,WUHU216HW,2013-07-27 23:57:00,
2013-07-27 20:02:00,73.5,65.1,30.11,SSE,158,0.0,0.0,75,0.00,,,0.43,WUHU216HW,2013-07-28 00:02:00,
2013-07-27 20:07:00,73.4,65.0,30.10,SSE,158,0.0,0.0,75,0.00,,,0.43,WUHU216HW,2013-07-28 00:07:00,
2013-07-27 20:12:00,73.2,64.9,30.11,SSE,158,0.0,0.0,75,0.00,,,0.43,WUHU216HW,2013-07-28 00:12:00,
2013-07-27 20:17:00,73.2,64.8,30.11,SSE,158,0.0,0.0,75,0.00,,,0.43,WUHU216HW,2013-07-28 00:17:00,
2013-07-27 20:22:00,73.2,64.8,30.11,SSE,158,0.0,0.0,75,0.00,,,0.43,WUHU216HW,2013-07-28 00:22:00,
2013-07-27 20:27:00,73.0,64.6,30.11,SSE,158,0.0,0.0,75,0.00,,,0.43,WUHU216HW,2013-07-28 00:27:00,
2013-07-27 20:32:00,72.3,64.5,30.11,SSE,158,0.0,0.0,76,0.00,,,0.43,WUHU216HW,2013-07-28 00:32:00,
2013-07-27 20:37:00,72.1,64.1,30.12,SSE,158,0.0,0.0,76,0.00,,,0.43,WUHU216HW,2013-07-28 00:37:00,
2013-07-27 20:42:00,71.9,63.9,30.11,SSE,158,0.0,0.0,76,0.00,,,0.43,WUHU216HW,2013-07-28 00:42:00,
2013-07-27 20:47:00,71.7,63.7,30.11,SSE,158,0.0,0.0,76,0.00,,,0.43,WUHU216HW,2013-07-28 00:47:00,
2013-07-27 20:52:00,71.6,63.9,30.12,SSE,158,0.0,0.0,77,0.00,,,0.43,WUHU216HW,2013-07-28 00:52:00,
2013-07-27 20:57:00,71.4,63.8,30.12,SSE,158,0.0,0.0,77,0.00,,,0.43,WUHU216HW,2013-07-28 00:57:00,
2013-07-27 21:02:00,70.8,63.2,30.12,SSE,158,0.0,0.0,77,0.00,,,0.43,WUHU216HW,2013-07-28 01:02:00,
2013-07-27 21:07:00,70.8,63.6,30.12,SSE,158,0.0,0.0,78,0.00,,,0.43,WUHU216HW,2013-07-28 01:07:00,
2013-07-27 21:12:00,70.5,63.2,30.12,SSE,158,0.0,0.0,78,0.00,,,0.43,WUHU216HW,2013-07-28 01:12:00,
2013-07-27 21:17:00,70.5,63.2,30.13,SSE,158,0.0,0.0,78,0.00,,,0.43,WUHU216HW,2013-07-28 01:17:00,
2013-07-27 21:22:00,70.3,63.1,30.13,SSE,158,0.0,0.0,78,0.00,,,0.43,WUHU216HW,2013-07-28 01:22:00,
2013-07-27 21:27:00,69.9,63.1,30.13,SSE,158,0.0,0.0,79,0.00,,,0.43,WUHU216HW,2013-07-28 01:27:00,
2013-07-27 21:32:00,69.8,62.9,30.12,SSE,158,0.0,0.0,79,0.00,,,0.43,WUHU216HW,2013-07-28 01:32:00,
2013-07-27 21:38:00,69.8,63.3,30.13,SSE,158,0.0,0.0,80,0.00,,,0.43,WUHU216HW,2013-07-28 01:38:00,
2013-07-27 21:43:00,69.6,63.1,30.13,SSE,158,0.0,0.0,80,0.00,,,0.43,WUHU216HW,2013-07-28 01:43:00,
2013-07-27 21:48:00,69.6,63.1,30.13,SSE,158,0.0,0.0,80,0.00,,,0.43,WUHU216HW,2013-07-28 01:48:00,
2013-07-27 21:53:00,69.6,63.1,30.13,SSE,158,0.0,0.0,80,0.00,,,0.43,WUHU216HW,2013-07-28 01:53:00,
2013-07-27 21:58:00,69.6,63.4,30.13,SSE,158,0.0,0.0,81,0.00,,,0.43,WUHU216HW,2013-07-28 01:58:00,
2013-07-27 22:03:00,69.8,63.6,30.13,SSE,158,0.0,0.0,81,0.00,,,0.43,WUHU216HW,2013-07-28 02:03:00,
2013-07-27 22:08:00,69.6,63.4,30.13,SSE,158,0.0,0.0,81,0.00,,,0.43,WUHU216HW,2013-07-28 02:08:00,
2013-07-27 22:13:00,69.6,63.8,30.13,SSE,158,0.0,0.0,82,0.00,,,0.43,WUHU216HW,2013-07-28 02:13:00,
2013-07-27 22:18:00,69.4,63.6,30.14,SSE,158,0.0,0.0,82,0.00,,,0.43,WUHU216HW,2013-07-28 02:18:00,
2013-07-27 22:23:00,69.4,63.6,30.13,SSE,158,0.0,0.0,82,0.00,,,0.43,WUHU216HW,2013-07-28 02:23:00,
2013-07-27 22:28:00,69.4,63.6,30.14,SSE,158,0.0,0.0,82,0.00,,,0.43,WUHU216HW,2013-07-28 02:28:00,
2013-07-27 22:33:00,69.4,64.0,30.14,SSE,158,0.0,0.0,83,0.00,,,0.43,WUHU216HW,2013-07-28 02:33:00,
2013-07-27 22:38:00,69.2,63.8,30.14,SSE,158,0.0,0.0,83,0.00,,,0.43,WUHU216HW,2013-07-28 02:38:00,
2013-07-27 22:43:00,69.0,63.6,30.14,SSE,158,0.0,0.0,83,0.00,,,0.43,WUHU216HW,2013-07-28 02:43:00,
2013-07-27 22:48:00,69.2,63.8,30.14,SSE,158,0.0,0.0,83,0.00,,,0.43,WUHU216HW,2013-07-28 02:48:00,
2013-07-27 22:53:00,69.0,63.6,30.13,SSE,158,0.0,0.0,83,0.00,,,0.43,WUHU216HW,2013-07-28 02:53:00,
2013-07-27 22:58:00,69.0,63.6,30.13,SSE,158,0.0,0.0,83,0.00,,,0.43,WUHU216HW,2013-07-28 02:58:00,
2013-07-27 23:03:00,68.9,63.5,30.13,SSE,158,0.0,0.0,83,0.00,,,0.43,WUHU216HW,2013-07-28 03:03:00,
2013-07-27 23:08:00,68.7,63.6,30.13,SSE,158,0.0,0.0,84,0.00,,,0.43,WUHU216HW,2013-07-28 03:08:00,
2013-07-27 23:13:00,68.7,63.6,30.13,SSE,158,0.0,0.0,84,0.00,,,0.43,WUHU216HW,2013-07-28 03:13:00,
2013-07-27 23:18:00,68.5,63.5,30.13,SSE,158,0.0,0.0,84,0.00,,,0.43,WUHU216HW,2013-07-28 03:18:00,
2013-07-27 23:23:00,68.5,63.5,30.13,SSE,158,0.0,0.0,84,0.00,,,0.43,WUHU216HW,2013-07-28 03:23:00,
2013-07-27 23:28:00,68.5,63.5,30.13,SSE,158,0.0,0.0,84,0.00,,,0.43,WUHU216HW,2013-07-28 03:28:00,
2013-07-27 23:33:00,68.5,63.5,30.13,SSE,158,0.0,0.0,84,0.00,,,0.43,WUHU216HW,2013-07-28 03:33:00,
2013-07-27 23:38:00,68.5,63.5,30.13,SSE,158,0.0,0.0,84,0.00,,,0.43,WUHU216HW,2013-07-28 03:38:00,
2013-07-27 23:43:00,68.7,63.8,30.13,SSE,158,0.0,0.0,85,0.00,,,0.43,WUHU216HW,2013-07-28 03:43:00,
2013-07-27 23:48:00,68.5,63.8,30.13,SSE,158,0.0,0.0,85,0.00,,,0.43,WUHU216HW,2013-07-28 03:48:00,
2013-07-27 23:53:00,68.5,63.8,30.13,SSE,158,0.0,0.0,85,0.00,,,0.43,WUHU216HW,2013-07-28 03:53:00,
2013-07-27 23:58:00,68.5,63.8,30.13,SSE,158,0.0,0.0,85,0.00,,,0.43,WUHU216HW,2013-07-28 03:58:00,